Retour au catalogue

COSMOS 1269

ActifNavigationLEO
NORAD 12442·PAYLOAD·🇷🇺 Russia

Lancé May 7, 1981 depuis Plesetsk Cosmodrome

Loading…

Prochains Passages (prochaines 24 heures)

TLE

FraisSource: Space-Track

Époque: Sep 14, 2026, 06:26 UTC

1 12442U 81041A   26257.26810733  .00000080  00000-0  38481-4 0  9995
2 12442  74.0538 203.0131 0008833  43.9190 316.2662 14.33149328368742

Suivez COSMOS 1269 en temps réel avec AllMySat

Download on the App Store